TimeCST,TemperatureF,Dew PointF,Humidity,Sea Level PressureIn,VisibilityMPH,Wind Direction,Wind SpeedMPH,Gust SpeedMPH,PrecipitationIn,Events,Conditions,WindDirDegrees,DateUTC
12:15 AM,-9999,-9999,N/A,30.14,10.0,East,3.5,-,N/A,,Clear,100,2012-11-08 06:15:00
12:55 AM,-9999,-9999,N/A,30.14,10.0,East,5.8,-,N/A,,Clear,90,2012-11-08 06:55:00
1:15 AM,-9999,-9999,N/A,30.14,10.0,East,4.6,-,N/A,,Clear,100,2012-11-08 07:15:00
1:35 AM,-9999,-9999,N/A,30.15,10.0,ESE,5.8,-,N/A,,Clear,110,2012-11-08 07:35:00
2:15 AM,-9999,-9999,N/A,30.15,10.0,ESE,4.6,-,N/A,,Clear,120,2012-11-08 08:15:00
2:35 AM,-9999,-9999,N/A,30.15,10.0,ESE,4.6,-,N/A,,Clear,110,2012-11-08 08:35:00
2:55 AM,-9999,-9999,N/A,30.13,10.0,East,4.6,-,N/A,,Clear,100,2012-11-08 08:55:00
3:15 AM,-9999,-9999,N/A,30.13,10.0,ESE,5.8,-,N/A,,Clear,110,2012-11-08 09:15:00
3:35 AM,-9999,-9999,N/A,30.12,10.0,East,6.9,-,N/A,,Clear,100,2012-11-08 09:35:00
4:15 AM,-9999,-9999,N/A,30.12,10.0,East,6.9,-,N/A,,Clear,100,2012-11-08 10:15:00
4:35 AM,-9999,-9999,N/A,30.11,10.0,East,6.9,-,N/A,,Clear,100,2012-11-08 10:35:00
5:15 AM,-9999,-9999,N/A,30.12,10.0,East,5.8,-,N/A,,Clear,100,2012-11-08 11:15:00
5:35 AM,-9999,-9999,N/A,30.12,10.0,East,5.8,-,N/A,,Clear,90,2012-11-08 11:35:00
5:55 AM,-9999,-9999,N/A,30.12,10.0,East,5.8,-,N/A,,Clear,100,2012-11-08 11:55:00
6:15 AM,-9999,-9999,N/A,30.12,10.0,East,5.8,-,N/A,,Clear,100,2012-11-08 12:15:00
6:55 AM,-9999,-9999,N/A,30.12,10.0,East,6.9,-,N/A,,Clear,100,2012-11-08 12:55:00
7:35 AM,-9999,-9999,N/A,30.13,10.0,ESE,6.9,-,N/A,,Clear,120,2012-11-08 13:35:00
7:55 AM,-9999,-9999,N/A,30.13,10.0,SE,8.1,-,N/A,,Clear,130,2012-11-08 13:55:00
8:35 AM,-9999,-9999,N/A,30.14,10.0,SSE,6.9,-,N/A,,Clear,150,2012-11-08 14:35:00
8:55 AM,-9999,-9999,N/A,30.14,10.0,SSE,9.2,-,N/A,,Clear,150,2012-11-08 14:55:00
9:35 AM,-9999,-9999,N/A,30.14,10.0,SSE,9.2,16.1,N/A,,Clear,160,2012-11-08 15:35:00
9:55 AM,-9999,-9999,N/A,30.13,10.0,South,12.7,19.6,N/A,,Clear,170,2012-11-08 15:55:00
10:15 AM,-9999,-9999,N/A,30.13,10.0,SSE,13.8,19.6,N/A,,Clear,160,2012-11-08 16:15:00
10:36 AM,-9999,-9999,N/A,30.12,10.0,South,13.8,20.7,N/A,,Clear,170,2012-11-08 16:36:00
11:15 AM,-9999,-9999,N/A,30.11,10.0,South,12.7,-,N/A,,Clear,180,2012-11-08 17:15:00
11:55 AM,-9999,-9999,N/A,30.09,10.0,South,19.6,23.0,N/A,,Clear,180,2012-11-08 17:55:00
12:15 PM,-9999,-9999,N/A,30.08,10.0,South,23.0,26.5,N/A,,Clear,180,2012-11-08 18:15:00
12:35 PM,-9999,-9999,N/A,30.06,10.0,South,16.1,23.0,N/A,,Clear,170,2012-11-08 18:35:00
12:55 PM,-9999,-9999,N/A,30.05,10.0,South,18.4,24.2,N/A,,Clear,180,2012-11-08 18:55:00
1:15 PM,-9999,-9999,N/A,30.04,10.0,South,16.1,25.3,N/A,,Clear,190,2012-11-08 19:15:00
1:55 PM,-9999,-9999,N/A,30.03,10.0,South,20.7,-,N/A,,Clear,180,2012-11-08 19:55:00
2:15 PM,-9999,-9999,N/A,30.02,10.0,South,18.4,24.2,N/A,,Clear,190,2012-11-08 20:15:00
2:35 PM,-9999,-9999,N/A,30.01,10.0,South,15.0,-,N/A,,Clear,180,2012-11-08 20:35:00
2:56 PM,-9999,-9999,N/A,30.01,10.0,South,19.6,26.5,N/A,,Clear,170,2012-11-08 20:56:00
3:15 PM,-9999,-9999,N/A,30.00,10.0,SSE,17.3,21.9,N/A,,Clear,160,2012-11-08 21:15:00
3:35 PM,-9999,-9999,N/A,30.00,10.0,SSE,16.1,20.7,N/A,,Clear,160,2012-11-08 21:35:00
4:15 PM,-9999,-9999,N/A,29.99,10.0,SSE,13.8,19.6,N/A,,Clear,160,2012-11-08 22:15:00
4:55 PM,-9999,-9999,N/A,29.99,10.0,SSE,13.8,20.7,N/A,,Clear,150,2012-11-08 22:55:00
5:16 PM,-9999,-9999,N/A,29.98,10.0,SE,17.3,21.9,N/A,,Clear,140,2012-11-08 23:16:00
5:35 PM,-9999,-9999,N/A,29.98,10.0,SE,13.8,-,N/A,,Clear,140,2012-11-08 23:35:00
5:55 PM,-9999,-9999,N/A,29.98,10.0,SE,13.8,24.2,N/A,,Clear,140,2012-11-08 23:55:00
6:35 PM,-9999,-9999,N/A,29.99,10.0,SSE,16.1,-,N/A,,Clear,150,2012-11-09 00:35:00
6:55 PM,-9999,-9999,N/A,30.00,10.0,SSE,11.5,-,N/A,,Clear,150,2012-11-09 00:55:00
7:35 PM,-9999,-9999,N/A,30.00,10.0,SE,11.5,-,N/A,,Clear,140,2012-11-09 01:35:00
8:35 PM,-9999,-9999,N/A,30.00,10.0,SSE,13.8,18.4,N/A,,Clear,160,2012-11-09 02:35:00
8:55 PM,-9999,-9999,N/A,30.00,10.0,SSE,16.1,19.6,N/A,,Clear,150,2012-11-09 02:55:00
9:15 PM,-9999,-9999,N/A,30.00,10.0,SSE,11.5,19.6,N/A,,Clear,160,2012-11-09 03:15:00
9:36 PM,-9999,-9999,N/A,30.00,10.0,SSE,11.5,20.7,N/A,,Clear,150,2012-11-09 03:36:00
9:55 PM,-9999,-9999,N/A,30.00,10.0,SSE,12.7,-,N/A,,Clear,150,2012-11-09 03:55:00
10:15 PM,-9999,-9999,N/A,30.00,10.0,SSE,10.4,-,N/A,,Clear,150,2012-11-09 04:15:00
10:35 PM,-9999,-9999,N/A,30.00,10.0,SSE,10.4,-,N/A,,Clear,160,2012-11-09 04:35:00
10:55 PM,-9999,-9999,N/A,30.00,10.0,SSE,10.4,17.3,N/A,,Clear,160,2012-11-09 04:55:00
11:15 PM,-9999,-9999,N/A,30.00,10.0,SSE,10.4,-,N/A,,Clear,150,2012-11-09 05:15:00
11:35 PM,-9999,-9999,N/A,30.01,10.0,SSE,11.5,-,N/A,,Clear,160,2012-11-09 05:35:00
11:55 PM,-9999,-9999,N/A,30.00,10.0,SSE,11.5,-,N/A,,Clear,160,2012-11-09 05:55:00